Showing default

AEROCUBE 8C, 41853

Orbit data source: Space-Track

AEROCUBE 8C, 41853 is a payload satellite owned by AERO (US) in SSO that was launched on Fri, 11 Nov 2016 UTC via an ATLAS V 401 launch vehicle from the Air Force Western Test Range (AFWTR). Payload-class satellites include a variety of spacecraft equipped with specific instruments for various scientific and technological missions. These include communications satellites like Starlink; space stations such as the ISS; scientific satellites like the Hubble; Earth observation satellites from companies like Planet Labs, Umbra, and HawkEye 360; GPS; miniature CubeSats for education and research; and military/defense satellites.

Loading next visibility...
Identifier
41853, 2016-067F
Orbit
SSO
Country
Flag of USUS
Related business
Manufacturer
AERO
Mission
Operational Defense Technology
Bus & Motor
CUBESAT 1.5U, Unknown motor
Mass
2 kg wet, 2 kg dry
Launch date (UTC)
2016-11-11 (9 years ago)
Launch vehicle
ATLAS V 401
Launch site
Air Force Western Test Range (AFWTR)
Object type
Payload
Rocket body
Debris
Shape & HBR
Box, 0.1 m
Radar Cross Section
0.025 m², Small (<0.1 m²)

Expand to show TLE details & history
Last TLE update: 14 hours ago

TLE from 14 hours ago
0 AEROCUBE 8C
1 41853U 16067F   26033.54645329  .00010260  00000-0  44725-3 0  9997
2 41853  98.0731 250.9312 0005730 154.0975 206.0547 15.22388245505564
Epoch: 2026-02-02T13:06Z
TLE epoch observation values (Epoch: 2026-02-02T13:06:53.564Z)
Latitude
-0.00004°
Longitude
-78.53216°
Altitude
505.254 km
Speed
7.61 km/s
True Right ascension
16h 43m 43s
True Declination
0° 00' 00"
Sunlit
Object was in daylight at epoch
Visualization orbit readout
Latitude
Unknown
Longitude
Unknown
Altitude
Unknown
Speed
Unknown
Apparent Right ascension
Unknown
Apparent Declination
Unknown
Sunlit
N/A
Visualization observer readout
Local Sidereal Time
05:02:27
Azimuth
Unknown
Elevation
Unknown
Doppler factor
Unknown
Orbital elements
Apogee altitude
499.57 km
Perigee altitude
491.693 km
Semi-major axis
6,873.769 km
Eccentricity
0.00057
Inclination
98.0731°
RAAN
250.9312°
Arg. of periapsis
154.0975°
True anomaly
206.02588°
Mean anomaly
206.0547°
Eccentric anomaly
206.04029°
Mean motion
3.80847 °/min
Orbital period
94.53 mins
BSTAR
0.00044725
Loading maneuver chart data...
Computing Atmospheric mass density...
Loading historical data...
Loading historical data...
Loading historical data...
Loading historical data...
Loading historical data...
Loading historical data...
Loading historical data...

Documentation

Showing up to 5 results
|